"2022-08-08 00:01:00",3059685,1.930667,333.5375,4.895824,0.1024022,2.11,0,0.9560001,305.8655,5.082679,0.2280877,1.25,0,-999,0,11.92,88.8,12.03,12.15,0.2,0,0,11.18,13.27,0.2,102.6019,3.32,3.322,3.32,100,0,0,0,198.7,66.35,66.35
"2022-08-08 00:02:00",3059686,2.072,333.7331,3.990987,0.05230678,2.15,0,0.8886667,308.7987,10.61249,0.1709529,1.16,0,-999,0,11.92,88.8,12.03,12.15,0.2,0,0,11.18,13.27,0.2,102.6024,3.323,3.323,3.32,100,0,0,0,198.7,66.35,66.35
"2022-08-08 00:03:00",3059687,2.038666,338.0031,3.519369,0.05643481,2.13,0,0.8266667,312.1676,10.07269,0.1248822,1.14,0,-999,0,11.92,88.9,12.03,12.16,0.2,0,0,11.18,13.27,0.2,102.5984,3.321,3.322,3.32,100,0,0,0,198.7,66.35,66.35
"2022-08-08 00:04:00",3059688,2.048667,336.8003,3.058904,0.08739693,2.21,0,0.9993334,310.8474,7.598506,0.1791635,1.32,0,-999,0,11.93,88.9,12.03,12.17,0.2,0,0,11.18,13.27,0.2,102.6039,3.321,3.322,3.32,100,0,0,0,198.7,66.35,66.35
"2022-08-08 00:05:00",3059689,1.992667,340.3331,3.418591,0.0960879,2.1,0,0.8739999,315.8166,11.41809,0.1968349,1.3,0,-999,0,11.93,88.9,12.04,12.17,0.2,0,0,11.17,13.27,0.2,102.6048,3.32,3.321,3.319,100,0,0,0,198.7,66.34,66.35
"2022-08-08 00:06:00",3059690,1.936,340.2,1.681223,0.07463689,2.06,0,0.9186667,312.611,8.928451,0.1766679,1.28,0,-999,0,11.95,89,12.04,12.17,0.2,0,0,11.16,13.27,0.2,102.5962,3.319,3.32,3.319,100,0,0,0,198.7,66.35,66.35
"2022-08-08 00:07:00",3059691,1.929333,344.0793,8.467628,0.2372472,2.27,0,0.9573333,311.9678,11.41745,0.2073794,1.39,0,-999,0,11.93,89,12.03,12.16,0.2,0,0,11.15,13.27,0.2,102.6009,3.321,3.321,3.32,100,0,0,0,198.7,66.34,66.35
"2022-08-08 00:08:00",3059692,1.895333,343.1247,5.579995,0.09837794,2.12,0,0.8106667,308.2411,9.939793,0.1816027,1.13,0,-999,0,11.92,89,12.03,12.15,0.2,0,0,11.15,13.27,0.2,102.6025,3.321,3.321,3.32,100,0,0,0,198.7,66.35,66.35
"2022-08-08 00:09:00",3059693,1.83,340.7317,3.956299,0.05525697,1.93,0,0.9659999,305.866,5.325836,0.1733513,1.18,0,-999,0,11.91,89,12.02,12.15,0.2,0,0,11.15,13.27,0.2,102.6009,3.321,3.321,3.32,100,0,0,0,198.7,66.35,66.35
"2022-08-08 00:10:00",3059694,1.833333,338,1.825715,0.07011104,1.96,0,1.045333,306.4858,8.269703,0.1567532,1.28,0,-999,0,11.91,89,12.02,12.11,0.2,0,0,11.15,13.27,0.2,102.6011,3.321,3.323,3.32,100,0,0,0,198.7,66.35,66.35
"2022-08-08 00:11:00",3059695,1.861333,337.0668,2.015511,0.04558749,1.92,0,1.003333,302.42,7.971511,0.1017623,1.22,0,-999,0,11.91,89,12.02,12.11,0.2,0,0,11.14,13.27,0.2,102.5968,3.319,3.321,3.319,100,0,0,0,198.7,66.35,66.35
"2022-08-08 00:12:00",3059696,1.916667,339.1337,2.093019,0.08904431,2,0,0.9233333,307.4091,6.835434,0.1616443,1.21,0,-999,0,11.91,89.1,12.02,12.11,0.2,0,0,11.13,13.27,0.2,102.6037,3.32,3.321,3.319,100,0,0,0,198.7,66.35,66.35
"2022-08-08 00:13:00",3059697,1.919333,337.9994,2.897903,0.05012874,1.99,0,1.078,305.9343,5.407342,0.1517981,1.27,0,-999,0,11.92,89.1,12.04,12.15,0.2,0,0,11.13,13.27,0.2,102.6038,3.321,3.321,3.32,100,0,0,0,198.7,66.35,66.35
"2022-08-08 00:14:00",3059698,1.975333,340.1298,3.824592,0.0839735,2.1,0,1.044667,311.7316,6.794863,0.09721911,1.24,0,-999,0,11.93,89.1,12.04,12.17,0.2,0,0,11.13,13.27,0.2,102.6008,3.32,3.321,3.319,100,0,0,0,198.7,66.35,66.35
"2022-08-08 00:15:00",3059699,2.065333,338.7967,4.589203,0.1070119,2.18,0,1.000667,305.0172,8.474465,0.1905944,1.33,0,-999,0,11.92,89.1,12.02,12.14,0.2,0,0,11.13,13.27,0.2,102.6056,3.321,3.321,3.319,100,0,0,0,198.7,66.35,66.35
"2022-08-08 00:16:00",3059700,2.097333,338.4667,4.33343,0.1044648,2.26,0,0.8993333,311.0622,8.567602,0.2332228,1.22,0,-999,0,11.91,89.1,12.02,12.13,0.2,0,0,11.13,13.27,0.2,102.6018,3.321,3.321,3.32,100,0,0,0,198.7,66.35,66.35
"2022-08-08 00:17:00",3059701,2.112667,337.5027,6.778997,0.07903307,2.27,0,1.153333,307.9518,7.747449,0.150584,1.45,0,-999,0,11.91,89.1,12.03,12.13,0.2,0,0,11.13,13.27,0.2,102.6007,3.321,3.321,3.321,100,0,0,0,198.7,66.35,66.35
"2022-08-08 00:18:00",3059702,2.1,336.1998,2.560772,0.09003706,2.24,0,1.008,308.1828,8.682933,0.2490301,1.48,0,-999,0,11.91,89,12.02,12.11,0.2,0,0,11.13,13.27,0.2,102.6054,3.321,3.321,3.319,100,0,0,0,198.7,66.34,66.35
"2022-08-08 00:19:00",3059703,2.156667,335.7692,7.034932,0.1518186,2.44,0,0.978,311.4126,10.25954,0.2170468,1.49,0,-999,0,11.91,89,12.02,12.11,0.2,0,0,11.13,13.27,0.2,102.6052,3.321,3.321,3.32,100,0,0,0,198.7,66.35,66.35
"2022-08-08 00:20:00",3059704,2.106,332.7333,1.913688,0.07998335,2.23,0,1.052,313.9974,6.622173,0.1314636,1.32,0,-999,0,11.91,89,12,12.1,0.2,0,0,11.13,13.27,0.2,102.6014,3.32,3.321,3.318,100,0,0,0,198.7,66.34,66.35
"2022-08-08 00:21:00",3059705,2.078,336.5993,2.214603,0.1213919,2.37,0,1.102667,306.6178,8.133802,0.1261992,1.34,0,-999,0,11.91,88.9,11.97,12.08,0.2,0,0,11.13,13.27,0.2,102.6049,3.321,3.321,3.319,100,0,0,0,198.7,66.35,66.35
"2022-08-08 00:22:00",3059706,2.067333,333.9212,5.716034,0.126884,2.2,0,0.808,309.5327,11.61273,0.2314361,1.22,0,-999,0,11.87,88.9,11.96,12.06,0.2,0,0,11.13,13.27,0.2,102.6107,3.321,3.322,3.318,100,0,0,0,198.7,66.35,66.35
"2022-08-08 00:23:00",3059707,2.144,329.3267,4.153625,0.1283641,2.46,0,0.9153334,307.5338,10.53652,0.2152167,1.52,0,-999,0,11.89,89,11.99,12.08,0.2,0,0,11.13,13.27,0.2,102.6026,3.321,3.322,3.321,100,0,0,0,198.7,66.34,66.35
"2022-08-08 00:24:00",3059708,2.144667,331.788,5.985372,0.1159234,2.41,0,0.9593334,307.4631,9.760895,0.1909788,1.17,0,-999,0,11.88,88.9,11.96,12.06,0.2,0,0,11.13,13.27,0.2,102.6,3.318,3.321,3.318,100,0,0,0,198.7,66.34,66.35
"2022-08-08 00:25:00",3059709,2.095333,328.6005,2.443709,0.08073553,2.21,0,0.8933334,302.6415,10.66997,0.2387932,1.4,0,-999,0,11.87,88.9,11.94,12.05,0.2,0,0,11.14,13.27,0.2,102.6049,3.319,3.319,3.317,100,0,0,0,198.7,66.35,66.35
"2022-08-08 00:26:00",3059710,1.940667,330.2003,2.879377,0.08225703,2.09,0,0.8626665,303.3281,8.734958,0.2059924,1.16,0,-999,0,11.86,88.9,11.94,12.04,0.2,0,0,11.13,13.27,0.2,102.5998,3.321,3.321,3.319,100,0,0,0,198.7,66.35,66.35
"2022-08-08 00:27:00",3059711,1.709333,331.7833,4.84729,0.1494642,1.91,0,0.6626667,304.5255,8.156447,0.2217045,1.13,0,-999,0,11.87,88.9,11.95,12.05,0.2,0,0,11.14,13.27,0.2,102.606,3.321,3.321,3.32,100,0,0,0,198.7,66.34,66.35
"2022-08-08 00:28:00",3059712,1.650667,333.4659,4.302694,0.08314378,1.81,0,0.604,301.0056,15.5543,0.181174,0.88,0,-999,0,11.86,88.9,11.93,12.04,0.2,0,0,11.14,13.27,0.2,102.6027,3.321,3.321,3.32,100,0,0,0,198.7,66.34,66.35
"2022-08-08 00:29:00",3059713,1.544667,334.0558,5.250303,0.1165542,1.87,0,0.5586666,298.8536,15.38104,0.1937994,0.89,0,-999,0,11.85,88.9,11.92,12.03,0.2,0,0,11.14,13.27,0.2,102.5931,3.32,3.321,3.319,100,0,0,0,198.7,66.34,66.34
"2022-08-08 00:30:00",3059714,1.380667,333.9955,4.424858,0.1135762,1.59,0,0.5093334,295.3885,11.89049,0.1281908,0.69,0,-999,0,11.84,88.9,11.92,12.02,0.2,0,0,11.14,13.27,0.2,102.5994,3.319,3.321,3.319,100,0,0,0,198.7,66.34,66.34
"2022-08-08 00:31:00",3059715,1.341333,329.9324,3.335588,0.0571392,1.43,0,0.4346667,298.5051,14.18429,0.09329999,0.68,0,-999,0,11.83,88.9,11.88,11.99,0.2,0,0,11.13,13.27,0.2,102.5996,3.321,3.321,3.319,100,0,0,0,198.7,66.34,66.34
"2022-08-08 00:32:00",3059716,1.277333,326.2665,2.593693,0.03820414,1.36,0,0.356,300.9536,9.521035,0.1124752,0.56,0,-999,0,11.8,88.8,11.85,11.95,0.2,0,0,11.13,13.27,0.2,102.6008,3.32,3.322,3.319,100,0,0,0,198.7,66.34,66.34
"2022-08-08 00:33:00",3059717,1.246,326.2639,4.055559,0.0829297,1.36,0,0.37,292.2725,11.90831,0.1174166,0.54,0,-999,0,11.78,88.8,11.82,11.91,0.2,0,0,11.13,13.27,0.2,102.5955,3.319,3.321,3.319,100,0,0,0,198.7,66.34,66.34
"2022-08-08 00:34:00",3059718,1.196,332.1995,3.543482,0.09199999,1.31,0,0.43,298.2047,10.93506,0.07080491,0.55,0,-999,0,11.78,88.9,11.85,11.92,0.2,0,0,11.13,13.27,0.2,102.6023,3.32,3.321,3.318,100,0,0,0,198.7,66.34,66.34
"2022-08-08 00:35:00",3059719,1.062667,333.3286,4.296776,0.07370812,1.17,0,0.612,289.6025,8.392049,0.08455373,0.79,0,-999,0,11.79,89,11.87,11.95,0.2,0,0,11.13,13.27,0.2,102.5934,3.321,3.321,3.319,100,0,0,0,198.7,66.34,66.34
"2022-08-08 00:36:00",3059720,1.035333,333.538,5.350074,0.101513,1.19,0,0.5353333,280.6768,7.275599,0.07640826,0.68,0,-999,0,11.8,89.1,11.86,11.95,0.2,0,0,11.13,13.27,0.2,102.5906,3.319,3.322,3.319,100,0,0,0,198.7,66.34,66.34
"2022-08-08 00:37:00",3059721,0.9553334,338.0814,7.098156,0.05976248,1.05,0,0.388,282.5022,11.10665,0.1285405,0.56,0,-999,0,11.78,89,11.83,11.93,0.2,0,0,11.13,13.27,0.2,102.5888,3.32,3.321,3.318,100,0,0,0,198.7,66.34,66.34
"2022-08-08 00:38:00",3059722,0.9259999,333.7963,5.072564,0.0769242,1.03,0,0.2413333,283.4472,16.45111,0.09236642,0.43,0,-999,0,11.74,89,11.77,11.89,0.2,0,0,11.11,13.27,0.2,102.6004,3.32,3.32,3.319,100,0,0,0,198.7,66.34,66.34
"2022-08-08 00:39:00",3059723,0.92,339.2147,6.787757,0.09584711,1.07,0,0.362,302.6306,7.173214,0.04777725,0.46,0,-999,0,11.72,89.1,11.77,11.88,0.2,0,0,11.11,13.27,0.2,102.5978,3.32,3.32,3.319,100,0,0,0,198.7,66.34,66.34
"2022-08-08 00:40:00",3059724,0.9566666,346.7276,5.295486,0.06225395,1.07,0,0.4186667,302.2678,3.640688,0.02825282,0.48,0,-999,0,11.71,89.1,11.73,11.84,0.2,0,0,11.11,13.27,0.2,102.5938,3.323,3.323,3.319,100,0,0,0,198.7,66.34,66.34
"2022-08-08 00:41:00",3059725,0.9746667,340.6684,9.097423,0.07990547,1.18,0,0.3173333,311.3328,8.403459,0.08346391,0.43,0,-999,0,11.7,89.1,11.68,11.77,0.2,0,0,11.09,13.27,0.2,102.5945,3.321,3.322,3.32,100,0,0,0,198.7,66.34,66.34
"2022-08-08 00:42:00",3059726,0.948,341.5924,7.072451,0.04955805,1.1,0,0.304,316.2417,8.827517,0.05030573,0.36,0,-999,0,11.66,89,11.65,11.73,0.2,0,0,11.08,13.27,0.2,102.5876,3.32,3.321,3.319,100,0,0,0,198.7,66.34,66.34
"2022-08-08 00:43:00",3059727,0.948,342.1341,4.673742,0.05101633,1.03,0,0.3713333,322.663,7.371773,0.05289822,0.47,0,-999,0,11.63,89,11.62,11.7,0.2,0,0,11.08,13.27,0.2,102.6003,3.32,3.321,3.319,100,0,0,0,198.7,66.33,66.34
"2022-08-08 00:44:00",3059728,0.9086667,336.2663,3.49175,0.06571319,0.99,0,0.5393333,309.7339,5.408107,0.04932433,0.62,0,-999,0,11.62,89,11.62,11.69,0.2,0,0,11.07,13.27,0.2,102.5946,3.32,3.321,3.32,100,0,0,0,198.7,66.33,66.34
"2022-08-08 00:45:00",3059729,0.8286666,342.667,3.770735,0.07079234,0.94,0,0.5486667,306.3985,4.094355,0.07517683,0.66,0,-999,0,11.62,89.1,11.64,11.73,0.2,0,0,11.06,13.27,0.2,102.5928,3.321,3.321,3.32,100,0,0,0,198.7,66.34,66.34
"2022-08-08 00:46:00",3059730,0.988,346.0001,1.931918,0.07538345,1.13,0,0.7366667,309.1356,4.128367,0.100907,0.88,0,-999,0,11.64,89.3,11.72,11.78,0.2,0,0,11.05,13.27,0.2,102.5924,3.32,3.321,3.319,100,0,0,0,198.7,66.34,66.34
"2022-08-08 00:47:00",3059731,1.009333,340.8007,2.925573,0.09525171,1.14,0,0.9226666,305.5331,1.407683,0.02205044,0.96,0,-999,0,11.7,89.6,11.83,11.9,0.2,0,0,11.04,13.27,0.2,102.5917,3.32,3.321,3.319,100,0,0,0,198.7,66.34,66.34
"2022-08-08 00:48:00",3059732,1.030667,340.5999,3.261621,0.03889588,1.11,0,0.8793334,308.1332,2.246829,0.03872411,0.93,0,-999,0,11.73,89.8,11.87,11.96,0.2,0,0,11.04,13.27,0.2,102.578,3.32,3.321,3.319,100,0,0,0,198.7,66.34,66.34
"2022-08-08 00:49:00",3059733,1.050667,338.0073,6.579521,0.06339996,1.15,0,0.8940001,303.9335,1.436044,0.05997778,0.97,0,-999,0,11.76,89.9,11.91,12,0.2,0,0,11.02,13.27,0.2,102.5881,3.32,3.321,3.32,100,0,0,0,198.7,66.33,66.34
"2022-08-08 00:50:00",3059734,1.158,338.0665,2.351123,0.05844655,1.3,0,0.9173334,305.7291,3.937669,0.05813395,0.98,0,-999,0,11.79,90,11.94,12.05,0.2,0,0,11,13.27,0.2,102.5875,3.318,3.321,3.318,100,0,0,0,198.7,66.33,66.34
"2022-08-08 00:51:00",3059735,1.166667,332.0679,3.641254,0.06214678,1.25,0,0.8753334,302.0629,4.445903,0.09985767,1.02,0,-999,0,11.8,90.1,11.94,12.05,0.2,0,0,10.99,13.27,0.2,102.5791,3.319,3.319,3.317,100,0,0,0,198.7,66.34,66.34
"2022-08-08 00:52:00",3059736,1.11,327.6667,3.626647,0.06324556,1.2,0,0.756,298.0008,3.965865,0.08600774,0.9,0,-999,0,11.79,90.1,11.94,12.05,0.2,0,0,10.99,13.27,0.2,102.5855,3.318,3.32,3.317,100,0,0,0,198.7,66.33,66.34
"2022-08-08 00:53:00",3059737,1.069333,324.7323,2.862376,0.05755769,1.16,0,0.7366666,296.9339,3.355581,0.0997107,0.91,0,-999,0,11.77,90.1,11.88,12.02,0.2,0,0,10.98,13.27,0.2,102.5794,3.321,3.321,3.317,100,0,0,0,198.7,66.33,66.34
"2022-08-08 00:54:00",3059738,1.023333,318,1.316573,0.03299831,1.1,0,0.8213333,293.1359,5.249834,0.05953896,0.94,0,-999,0,11.75,90.1,11.87,11.99,0.2,0,0,10.97,13.27,0.2,102.5887,3.32,3.321,3.319,100,0,0,0,198.7,66.34,66.34
"2022-08-08 00:55:00",3059739,1.116,317,1.366403,0.05339163,1.19,0,0.8339999,292.3965,4.011059,0.06760669,0.94,0,-999,0,11.75,90.1,11.86,11.97,0.2,0,0,10.96,13.27,0.2,102.5855,3.321,3.321,3.319,100,0,0,0,198.7,66.33,66.33
"2022-08-08 00:56:00",3059740,1.066667,316.0665,1.569129,0.03960921,1.16,0,0.8686666,291.0035,4.500256,0.1144183,1.03,0,-999,0,11.75,90.2,11.86,11.97,0.2,0,0,10.95,13.27,0.2,102.5842,3.319,3.32,3.319,100,0,0,0,198.7,66.34,66.33
"2022-08-08 00:57:00",3059741,1.024,312.0666,1.730745,0.0296198,1.07,0,0.9093333,289.1992,4.320102,0.1099374,1.07,0,-999,0,11.74,90.2,11.87,11.97,0.2,0,0,10.95,13.27,0.2,102.5848,3.319,3.32,3.318,100,0,0,0,198.7,66.33,66.33
"2022-08-08 00:58:00",3059742,1.009333,312.0667,0.8538869,0.06169458,1.13,0,0.8253333,283.6649,4.539503,0.09534967,0.96,0,-999,0,11.73,90.2,11.87,11.98,0.2,0,0,10.93,13.26,0.2,102.5937,3.319,3.32,3.318,100,0,0,0,198.7,66.33,66.33
"2022-08-08 00:59:00",3059743,1.02,309.1333,1.203565,0.06542169,1.15,0,0.666,274.0626,6.371073,0.07587711,0.8,0,-999,0,11.73,90.3,11.88,11.98,0.2,0,0,10.93,13.27,0.2,102.5865,3.32,3.32,3.318,100,0,0,0,198.7,66.34,66.33
"2022-08-08 01:00:00",3059744,1.208,312.8,1.796252,0.119119,1.38,0,0.668,269.6665,2.18033,0.04995998,0.74,0,-999,0,11.75,90.3,11.88,12,0.2,0,0,10.93,13.27,0.2,102.583,3.319,3.319,3.318,100,0,0,0,198.7,66.33,66.33
"2022-08-08 01:01:00",3059745,1.15,311.4667,2.629446,0.09556849,1.33,0,0.6453333,275.2663,3.042742,0.0720987,0.82,0,-999,0,11.73,90.3,11.86,11.98,0.2,0,0,10.91,13.27,0.2,102.5872,3.317,3.32,3.317,100,0,0,0,198.7,66.33,66.33
"2022-08-08 01:02:00",3059746,1.246,310.3333,1.398405,0.1051855,1.41,0,0.7073334,280.2006,4.940466,0.05246798,0.8,0,-999,0,11.73,90.3,11.87,11.97,0.2,0,0,10.9,13.27,0.2,102.5889,3.319,3.32,3.317,100,0,0,0,198.7,66.33,66.33
"2022-08-08 01:03:00",3059747,1.171333,312.7995,2.687824,0.09618502,1.34,0,0.7073333,278.1981,4.034977,0.03108411,0.77,0,-999,0,11.72,90.3,11.86,11.96,0.2,0,0,10.9,13.27,0.2,102.5926,3.319,3.32,3.318,100,0,0,0,198.7,66.33,66.33
"2022-08-08 01:04:00",3059748,1.352,312.9334,1.913535,0.04833217,1.42,0,0.6633334,283.0692,3.170613,0.06062636,0.75,0,-999,0,11.71,90.4,11.84,11.95,0.2,0,0,10.9,13.27,0.2,102.5855,3.321,3.321,3.319,100,0,0,0,198.7,66.33,66.33
"2022-08-08 01:05:00",3059749,1.394,310.9333,2.015365,0.06529931,1.49,0,0.6873333,283.9328,3.02056,0.0402437,0.76,0,-999,0,11.71,90.4,11.83,11.95,0.2,0,0,10.9,13.27,0.2,102.5989,3.32,3.321,3.32,100,0,0,0,198.7,66.33,66.33
"2022-08-08 01:06:00",3059750,1.456,313.8002,2.58696,0.05748042,1.55,0,0.6859999,289.0055,5.08206,0.0643739,0.78,0,-999,0,11.71,90.5,11.85,11.95,0.2,0,0,10.9,13.27,0.2,102.5903,3.318,3.32,3.317,100,0,0,0,198.7,66.33,66.33
"2022-08-08 01:07:00",3059751,1.366,311.8665,1.927351,0.06086048,1.43,0,0.7573332,285.2656,3.042967,0.02515727,0.81,0,-999,0,11.71,90.5,11.85,11.95,0.2,0,0,10.9,13.27,0.2,102.5917,3.32,3.321,3.319,100,0,0,0,198.7,66.33,66.33
"2022-08-08 01:08:00",3059752,1.255333,313.3976,3.177008,0.09905329,1.49,0,0.7993333,286.7339,3.374903,0.06071427,0.88,0,-999,0,11.75,90.6,11.91,11.99,0.2,0,0,10.9,13.27,0.2,102.5928,3.321,3.321,3.318,100,0,0,0,198.7,66.33,66.33
"2022-08-08 01:09:00",3059753,1.67,313.3337,3.258704,0.09591664,1.76,0,0.9386666,292.733,3.04316,0.04256237,0.99,0,-999,0,11.81,90.8,12.01,12.06,0.2,0,0,10.89,13.27,0.2,102.5952,3.318,3.32,3.318,100,0,0,0,198.7,66.33,66.33
"2022-08-08 01:10:00",3059754,1.708667,314.8667,0.9571915,0.05149324,1.81,0,1.002,295.199,2.902533,0.01973151,1.04,0,-999,0,11.81,90.7,11.95,12.06,0.2,0,0,10.88,13.27,0.2,102.5911,3.319,3.319,3.317,100,0,0,0,198.7,66.33,66.33
"2022-08-08 01:11:00",3059755,1.934,309.2667,1.236613,0.06601008,2.06,0,1.151333,295.2001,2.103752,0.07579505,1.25,0,-999,0,11.79,90.7,11.92,12.05,0.2,0,0,10.88,13.27,0.2,102.6004,3.319,3.32,3.319,100,0,0,0,198.7,66.33,66.33
"2022-08-08 01:12:00",3059756,2.082667,308.4654,2.801013,0.03335998,2.14,0,1.093333,292.2046,6.899626,0.08791409,1.29,0,-999,0,11.76,90.6,11.86,12.01,0.2,0,0,10.88,13.27,0.2,102.5978,3.319,3.32,3.318,100,0,0,0,198.7,66.33,66.33
"2022-08-08 01:13:00",3059757,1.954667,307.5331,1.745894,0.07041463,2.06,0,0.928,294.1951,6.78974,0.1340746,1.12,0,-999,0,11.75,90.6,11.82,11.97,0.2,0,0,10.88,13.27,0.2,102.5935,3.319,3.321,3.318,100,0,0,0,198.7,66.33,66.33
"2022-08-08 01:14:00",3059758,1.905333,307.2664,1.948018,0.06291442,2.01,0,0.8586667,297.3321,3.716604,0.1064498,1,0,-999,0,11.72,90.6,11.78,11.94,0.2,0,0,10.87,13.27,0.2,102.5884,3.32,3.321,3.319,100,0,0,0,198.7,66.34,66.33
"2022-08-08 01:15:00",3059759,1.849333,305.4,1.083228,0.04891715,1.93,0,0.9333333,298.7962,4.100347,0.06538771,1.08,0,-999,0,11.69,90.5,11.74,11.9,0.2,0,0,10.86,13.27,0.2,102.5971,3.32,3.32,3.319,100,0,0,0,198.7,66.33,66.33
"2022-08-08 01:16:00",3059760,1.867333,305.5334,0.956578,0.03678162,1.93,0,0.8460001,300.3986,3.99556,0.07162867,0.95,0,-999,0,11.68,90.5,11.73,11.89,0.2,0,0,10.86,13.27,0.2,102.5959,3.318,3.319,3.317,100,0,0,0,198.7,66.33,66.33
"2022-08-08 01:17:00",3059761,1.871333,306.5333,0.7177936,0.03862065,1.92,0,0.742,299.8061,5.438615,0.08051501,0.87,0,-999,0,11.67,90.5,11.72,11.88,0.2,0,0,10.86,13.27,0.2,102.5952,3.319,3.32,3.317,100,0,0,0,198.7,66.33,66.33
"2022-08-08 01:18:00",3059762,1.87,307.6666,1.299438,0.05403703,1.96,0,0.638,302.0001,5.488318,0.07286517,0.75,0,-999,0,11.64,90.5,11.69,11.82,0.2,0,0,10.86,13.27,0.2,102.5908,3.318,3.32,3.318,100,0,0,0,198.7,66.33,66.33
"2022-08-08 01:19:00",3059763,1.768,309.6667,1.299438,0.06744874,1.89,0,0.6293333,293.3417,6.685275,0.1132235,0.83,0,-999,0,11.63,90.4,11.67,11.8,0.2,0,0,10.85,13.27,0.2,102.5973,3.317,3.319,3.317,100,0,0,0,198.7,66.33,66.33
"2022-08-08 01:20:00",3059764,1.616,310.6667,1.299514,0.0652993,1.69,0,0.5153333,296.2803,5.737342,0.04208986,0.61,0,-999,0,11.59,90.4,11.63,11.75,0.2,0,0,10.83,13.27,0.2,102.5855,3.317,3.318,3.317,100,0,0,0,198.7,66.32,66.33
"2022-08-08 01:21:00",3059765,1.434,310.2,2.006552,0.05301572,1.51,0,0.4813333,299.935,3.837044,0.04674279,0.59,0,-999,0,11.56,90.4,11.61,11.74,0.2,0,0,10.83,13.27,0.2,102.5966,3.32,3.32,3.317,100,0,0,0,198.7,66.33,66.33
"2022-08-08 01:22:00",3059766,1.348,312.9329,2.293552,0.05647417,1.47,0,0.3286667,301.4437,7.32833,0.06427719,0.41,0,-999,0,11.57,90.4,11.55,11.72,0.2,0,0,10.81,13.27,0.2,102.6036,3.321,3.321,3.32,100,0,0,0,198.7,66.32,66.33
"2022-08-08 01:23:00",3059767,1.282,313.5999,3.281524,0.06615135,1.39,0,0.3106667,294.8936,8.117707,0.03889587,0.37,0,-999,0,11.54,90.4,11.51,11.67,0.2,0,0,10.81,13.27,0.2,102.5919,3.32,3.322,3.319,100,0,0,0,198.7,66.33,66.33
"2022-08-08 01:24:00",3059768,1.273333,314.7333,2.619479,0.0536242,1.4,0,0.3013333,306.8113,6.84765,0.03964285,0.37,0,-999,0,11.53,90.4,11.49,11.65,0.2,0,0,10.81,13.27,0.2,102.5938,3.32,3.32,3.319,100,0,0,0,198.7,66.33,66.33
"2022-08-08 01:25:00",3059769,1.226667,315.7333,2.767718,0.07235713,1.35,0,0.3846667,303.8635,4.542922,0.04869861,0.44,0,-999,0,11.53,90.4,11.46,11.61,0.2,0,0,10.8,13.27,0.2,102.5831,3.32,3.32,3.318,100,0,0,0,198.7,66.33,66.33
"2022-08-08 01:26:00",3059770,1.148667,316.3999,2.184683,0.0917872,1.32,0,0.4593334,296.7997,4.085135,0.04106364,0.54,0,-999,0,11.53,90.4,11.49,11.62,0.2,0,0,10.79,13.27,0.2,102.5855,3.318,3.321,3.318,100,0,0,0,198.7,66.33,66.33
"2022-08-08 01:27:00",3059771,1.216667,311.4,2.961503,0.0707735,1.33,0,0.4986666,291.5343,5.487493,0.03499841,0.56,0,-999,0,11.55,90.5,11.56,11.66,0.2,0,0,10.78,13.26,0.2,102.5879,3.319,3.32,3.318,100,0,0,0,198.7,66.33,66.33
"2022-08-08 01:28:00",3059772,1.220667,307.5998,1.704814,0.03802923,1.29,0,0.4353333,286.0023,3.160795,0.06641953,0.52,0,-999,0,11.55,90.5,11.57,11.7,0.2,0,0,10.77,13.27,0.2,102.5949,3.32,3.32,3.318,100,0,0,0,198.7,66.34,66.33
"2022-08-08 01:29:00",3059773,1.148667,304.0007,1.965881,0.05829427,1.24,0,0.2826667,282.7979,3.708224,0.04538232,0.38,0,-999,0,11.51,90.5,11.56,11.69,0.2,0,0,10.75,13.27,0.2,102.5844,3.318,3.319,3.317,100,0,0,0,198.7,66.32,66.33
"2022-08-08 01:30:00",3059774,1.107333,301.6674,2.958026,0.039911,1.18,0,0.2633333,273.9997,6.052845,0.03875851,0.36,0,-999,0,11.49,90.5,11.54,11.67,0.2,0,0,10.74,13.27,0.2,102.5917,3.317,3.319,3.317,100,0,0,0,198.7,66.32,66.33
"2022-08-08 01:31:00",3059775,1.138,305.4668,2.186565,0.05741081,1.22,0,0.358,272.9324,3.433992,0.02925747,0.4,0,-999,0,11.5,90.6,11.56,11.67,0.2,0,0,10.73,13.27,0.2,102.5855,3.32,3.32,3.317,100,0,0,0,198.7,66.33,66.33
"2022-08-08 01:32:00",3059776,1.338,307.4,1.083228,0.05540156,1.41,0,0.5200001,283.8668,2.472958,0.07737355,0.61,0,-999,0,11.5,90.6,11.58,11.68,0.2,0,0,10.72,13.27,0.2,102.5821,3.318,3.32,3.317,100,0,0,0,198.7,66.32,66.33
"2022-08-08 01:33:00",3059777,1.371333,306.7332,1.236455,0.02390721,1.4,0,0.644,283.3333,2.240849,0.04378736,0.73,0,-999,0,11.5,90.7,11.56,11.67,0.2,0,0,10.71,13.27,0.2,102.5811,3.319,3.319,3.317,100,0,0,0,198.7,66.32,66.33
"2022-08-08 01:34:00",3059778,1.484,307.1332,1.309567,0.03006656,1.53,0,0.8126667,281.1971,3.707801,0.03678165,0.86,0,-999,0,11.57,90.9,11.71,11.76,0.2,0,0,10.7,13.27,0.2,102.5832,3.317,3.32,3.317,100,0,0,0,198.7,66.32,66.33
"2022-08-08 01:35:00",3059779,1.568,305.4,0.9522718,0.07652449,1.68,0,0.8286667,288.8649,3.49899,0.04951318,0.93,0,-999,0,11.64,91,11.78,11.83,0.2,0,0,10.68,13.27,0.2,102.5868,3.317,3.319,3.317,100,0,0,0,198.7,66.33,66.33
"2022-08-08 01:36:00",3059780,1.73,305.7333,1.340077,0.05215361,1.81,0,0.8606666,288.9986,2.707005,0.1035675,0.96,0,-999,0,11.67,91.1,11.82,11.9,0.2,0,0,10.67,13.27,0.2,102.5837,3.32,3.32,3.317,100,0,0,0,198.7,66.32,66.33
"2022-08-08 01:37:00",3059781,1.760667,304.7333,0.6802814,0.03530186,1.81,0,0.864,285.533,4.143991,0.1141227,1.05,0,-999,0,11.68,91.1,11.79,11.92,0.2,0,0,10.63,13.27,0.2,102.5834,3.318,3.32,3.318,100,0,0,0,198.7,66.32,66.33
"2022-08-08 01:38:00",3059782,1.638,305.2,0.8327699,0.04460195,1.74,0,0.7193334,284.4003,7.418044,0.0988242,0.87,0,-999,0,11.64,91,11.74,11.87,0.2,0,0,10.62,13.27,0.2,102.5859,3.317,3.319,3.317,100,0,0,0,198.7,66.32,66.33
"2022-08-08 01:39:00",3059783,1.574,303.7333,0.9285477,0.02416611,1.63,0,0.5673333,283.8013,3.866629,0.05322489,0.68,0,-999,0,11.58,91,11.67,11.81,0.2,0,0,10.62,13.27,0.2,102.5882,3.318,3.318,3.317,100,0,0,0,198.7,66.32,66.33
"2022-08-08 01:40:00",3059784,1.487333,302.1333,1.086926,0.04697042,1.55,0,0.62,281.7956,3.899265,0.07247988,0.75,0,-999,0,11.5,90.8,11.52,11.73,0.2,0,0,10.63,13.27,0.2,102.5874,3.317,3.319,3.316,100,0,0,0,198.7,66.33,66.33
"2022-08-08 01:41:00",3059785,1.416,302.4667,0.9566804,0.02059126,1.46,0,0.486,278.6039,7.121783,0.06509481,0.61,0,-999,0,11.42,90.8,11.43,11.63,0.2,0,0,10.61,13.27,0.2,102.5826,3.317,3.319,3.317,100,0,0,0,198.7,66.32,66.32
"2022-08-08 01:42:00",3059786,1.290667,300.9334,1.388501,0.05105118,1.37,0,0.396,263.178,9.55908,0.05314132,0.49,0,-999,0,11.39,90.8,11.42,11.59,0.2,0,0,10.59,13.27,0.2,102.578,3.317,3.319,3.317,100,0,0,0,198.7,66.32,66.32
"2022-08-08 01:43:00",3059787,1.071333,297.2666,2.174484,0.06601683,1.17,0,0.336,232.8178,14.08298,0.0282371,0.37,0,-999,0,11.38,90.8,11.38,11.54,0.2,0,0,10.58,13.26,0.2,102.5829,3.319,3.32,3.317,100,0,0,0,198.7,66.32,66.32
"2022-08-08 01:44:00",3059788,0.822,289.0048,5.109636,0.08368193,0.95,0,0.448,184.024,11.30141,0.09502279,0.59,0,-999,0,11.33,90.8,11.33,11.48,0.2,0,0,10.56,13.27,0.2,102.5705,3.317,3.319,3.317,100,0,0,0,198.7,66.32,66.32
"2022-08-08 01:45:00",3059789,0.5553333,277.4666,4.287416,0.03630735,0.67,0,0.5433333,166.5408,12.43586,0.02573369,0.61,0,-999,0,11.3,90.8,11.32,11.45,0.2,0,0,10.54,13.26,0.2,102.5723,3.317,3.318,3.317,100,0,0,0,198.7,66.33,66.32
"2022-08-08 01:46:00",3059790,0.6020001,286.7316,4.137563,0.08431686,0.77,0,0.5826666,134.7791,9.277784,0.03530187,0.64,0,-999,0,11.27,90.7,11.27,11.44,0.2,0,0,10.54,13.27,0.2,102.5737,3.317,3.318,3.317,100,0,0,0,198.7,66.32,66.32